Regional Weather Roundup
Issued by NWS Jackson, KY

Home | Current Version | Previous Version | Text Only | Print | Product List | Glossary Off
Versions: 1 2 3 4 5 6 7 8 9 10 11 12 13 14 15 16 17 18 19 20 21 22 23 24 25 26 27 28 29 30 31 32 33 34 35 36 37 38 39 40 41 42 43 44 45 46 47 48 49 50

000
ASUS43 KJKL 121610
RWRJKL

EAST KENTUCKY HOURLY WEATHER ROUNDUP
NATIONAL WEATHER SERVICE JACKSON KY
1100 AM EST FRI FEB 12 2016

NOTE: "FAIR" INDICATES FEW OR NO CLOUDS BELOW 12,000 FEET WITH
NO SIGNIFICANT WEATHER AND/OR OBSTRUCTIONS TO VISIBILITY.

* THESE REPORTS ARE NOT UNDER NWS QUALITY CONTROL AND MAY NOT
  REPORT WEATHER SUCH AS PRECIPITATION AND FOG.

KYZ079-080-083-085-087-088-110-112-115-119-120-121700
...EASTERN KENTUCKY...

CITY           SKY/WX    TMP DP  RH WIND       PRES   REMARKS
JACKSON        CLOUDY    25  13  60 CALM      30.12S
LONDON         LGT SNOW  26  22  84 CALM      30.14S FOG
SOMERSET*      LGT SNOW  27  25  93 CALM      30.19S VSB 1
MONTICELLO*    LGT SNOW  29  25  85 W3        30.19S FOG
WILLIAMSBURG*  CLOUDY    27  27 100 CALM      30.15S
MIDDLESBORO*   LGT SNOW  28  28  96 CALM      30.14S VSB 1
HARLAN APT*    CLOUDY    27  23  86 CALM      30.11S VSB 1/2
HAZARD APT*    LGT SNOW  23  16  74 CALM      30.12S
BLACK MTN*       N/A     21  21 100 SW5         N/A  WCI  15
BIG SANDY*     CLOUDY    26  14  61 CALM      30.13S
MOREHEAD APT*  CLOUDY    25  10  54 CALM      30.17S
$$

KYZ035-036-041-042-044-050-067-078-099-121700
...CENTRAL KENTUCKY...

CITY           SKY/WX    TMP DP  RH WIND       PRES   REMARKS
MT STERLING*   CLOUDY    28  16  59 CALM      30.17S
DANVILLE*      LGT SNOW  27  23  86 NW6       30.18S WCI  20
RICHMOND*      CLOUDY    25  19  80 W3        30.16S
LEXINGTON      CLOUDY    28  18  66 W10       30.16S WCI  19
FRANKFORT      CLOUDY    29  16  58 VRB7      30.16F WCI  22
$$

KYZ091>093-OHZ055-061-077-WVZ005-015-034-035-042-121700
...SOUTHERN OHIO/WEST VIRGINIA...

CITY           SKY/WX    TMP DP  RH WIND       PRES   REMARKS
COVINGTON      LGT SNOW  23  17  78 SW8       30.15F VSB 3/4 WCI  14
COLUMBUS       CLOUDY    18   5  57 SW7       30.14F WCI   9
DAYTON         CLOUDY    22  11  62 SW9       30.12F WCI  12
WILMINGTON     CLOUDY    21  13  71 SW12      30.11F WCI   9
HUNTINGTON     CLOUDY    24  10  55 SW5       30.16S WCI  18
CHARLESTON     CLOUDY    22  12  65 CALM      30.13F
PINEVILLE*       N/A     29  11  47 MISG      30.12F
BECKLEY        CLOUDY    26  11  52 CALM      30.02F
$$

VAZ002-007-008-TNZ017-027-036-066-071-121700
...SOUTHWEST VIRGINIA/EAST TENNESSEE...

CITY           SKY/WX    TMP DP  RH WIND       PRES   REMARKS
BRISTOL        SNOW      28  25  88 CALM      30.11F VSB 1/2
KNOXVILLE      CLOUDY    31  28  89 NW7       30.14S WCI  24
OAK RIDGE      LGT SNOW  32  29  88 VRB5      30.16F FOG     WCI  27
CROSSVILLE     CLOUDY    34  30  85 W3        30.11S
NASHVILLE      CLOUDY    37  22  54 N3        30.20R
$$

...KEY TO REMARKS...
VSB - VISIBILITY IN MILES
WCI - WIND CHILL INDEX
HX  - HEAT INDEX

$$



USA.gov is the U.S. government's official web portal to all federal, state and local government web resources and services.